Station Historical Data
Daily Summary for February 29, 2012 Units:  Metric    English   Both
« Previous Day
Next Day »
Daily Weekly Monthly Yearly Custom
  High: Low: Average:
Temperature: 22.7 °C 15.7 °C 19 °C
Dew Point: 18.2 °C 14.9 °C 16.9 °C
Humidity: 95% 72% 88%
Wind Speed: 35.4km/h 4.8km/h 16.6km/h
Wind Gust: 46.7km/h - -
Wind- - SSW
Pressure: 1017.8 hPa 1007 hPa -
Precipitation: 1.27 mm    
Historical Graphs
 
 
Tabular Data for February 29, 2012
Time Temperature Dew Point Pressure Wind Wind Speed Wind Gust Humidity Rainfall Rate (Hourly) Conditions
00:00 15.7 °C 14.9 °C 1017.5 hPa SSE 17.7 km/h 25.7 km/h 95% 0 mm
00:01 15.7 °C 14.9 °C 1017.5 hPa SSE 11.3 km/h 25.7 km/h 95% 0 mm
00:05 15.7 °C 14.9 °C 1017.2 hPa SE 20.9 km/h 25.7 km/h 95% 0 mm
00:10 15.8 °C 15 °C 1017.5 hPa South 14.5 km/h 27.4 km/h 95% 0 mm
00:15 15.8 °C 15 °C 1017.5 hPa South 11.3 km/h 20.9 km/h 95% 0 mm
00:21 15.8 °C 15 °C 1017.5 hPa SSE 8 km/h 12.9 km/h 95% 0 mm
00:26 15.8 °C 15 °C 1017.8 hPa SSE 17.7 km/h 17.7 km/h 95% 0 mm
00:31 15.8 °C 15.1 °C 1017.5 hPa SSE 12.9 km/h 20.9 km/h 95% 0 mm
00:36 15.8 °C 15.1 °C 1017.5 hPa ESE 17.7 km/h 17.7 km/h 95% 0 mm
00:41 15.9 °C 15.1 °C 1017.5 hPa South 11.3 km/h 20.9 km/h 95% 0 mm
00:46 15.9 °C 15.1 °C 1017.2 hPa SSW 16.1 km/h 22.5 km/h 95% 0 mm
00:51 15.9 °C 15.1 °C 1017.2 hPa SE 16.1 km/h 25.7 km/h 95% 0 mm
00:56 15.9 °C 15.2 °C 1017.2 hPa South 14.5 km/h 19.3 km/h 95% 0 mm
01:01 16 °C 15.2 °C 1017.2 hPa SE 17.7 km/h 20.9 km/h 95% 0 mm
01:06 16 °C 15.2 °C 1017.2 hPa SE 12.9 km/h 22.5 km/h 95% 0 mm
01:11 16.1 °C 15.3 °C 1017.2 hPa SE 19.3 km/h 22.5 km/h 95% 0 mm
01:16 16.1 °C 15.3 °C 1016.8 hPa South 16.1 km/h 27.4 km/h 95% 0 mm
01:21 16.1 °C 15.3 °C 1016.8 hPa SE 17.7 km/h 27.4 km/h 95% 0 mm
01:26 16.2 °C 15.4 °C 1016.8 hPa SSE 24.1 km/h 25.7 km/h 95% 0 mm
01:32 16.2 °C 15.4 °C 1017.2 hPa SSW 17.7 km/h 27.4 km/h 95% 0 mm
01:37 16.2 °C 15.4 °C 1017.2 hPa SSE 19.3 km/h 19.3 km/h 95% 0 mm
01:42 16.3 °C 15.5 °C 1017.2 hPa SSW 12.9 km/h 20.9 km/h 95% 0 mm
01:47 16.3 °C 15.5 °C 1016.8 hPa South 6.4 km/h 22.5 km/h 95% 0 mm
01:52 16.3 °C 15.5 °C 1016.8 hPa South 11.3 km/h 25.7 km/h 95% 0 mm
01:57 16.3 °C 15.6 °C 1017.2 hPa South 8 km/h 20.9 km/h 95% 0 mm
02:02 16.3 °C 15.6 °C 1017.2 hPa SSE 16.1 km/h 19.3 km/h 95% 0 mm
02:07 16.3 °C 15.6 °C 1016.8 hPa SSW 11.3 km/h 19.3 km/h 95% 0 mm
02:12 16.3 °C 15.6 °C 1016.8 hPa South 8 km/h 20.9 km/h 95% 0 mm
02:17 16.3 °C 15.6 °C 1016.5 hPa SSW 11.3 km/h 20.9 km/h 95% 0 mm
02:22 16.4 °C 15.6 °C 1016.1 hPa South 6.4 km/h 17.7 km/h 95% 0 mm
02:27 16.4 °C 15.6 °C 1015.8 hPa SE 12.9 km/h 25.7 km/h 95% 0 mm
02:32 16.4 °C 15.6 °C 1015.5 hPa SE 22.5 km/h 24.1 km/h 95% 0 mm
02:37 16.4 °C 15.6 °C 1015.1 hPa SSE 20.9 km/h 25.7 km/h 95% 0 mm
02:42 16.4 °C 15.7 °C 1015.1 hPa SSW 17.7 km/h 27.4 km/h 95% 0 mm
02:47 16.5 °C 15.7 °C 1014.8 hPa SSE 22.5 km/h 30.6 km/h 95% 0 mm
02:53 16.5 °C 15.7 °C 1015.1 hPa SE 16.1 km/h 20.9 km/h 95% 0 mm
02:58 16.6 °C 15.8 °C 1015.5 hPa South 9.7 km/h 19.3 km/h 95% 0 mm
03:03 16.6 °C 15.8 °C 1015.8 hPa SSW 19.3 km/h 25.7 km/h 95% 0 mm
03:08 16.7 °C 15.9 °C 1015.5 hPa SSE 17.7 km/h 25.7 km/h 95% 0 mm
03:13 16.7 °C 15.9 °C 1014.8 hPa SSE 24.1 km/h 27.4 km/h 95% 0 mm
03:18 16.7 °C 15.9 °C 1014.8 hPa SW 20.9 km/h 33.8 km/h 95% 0 mm
03:23 16.7 °C 15.9 °C 1014.8 hPa South 22.5 km/h 29 km/h 95% 0 mm
03:28 16.8 °C 16 °C 1014.4 hPa SSE 19.3 km/h 30.6 km/h 95% 0 mm
03:33 16.8 °C 16 °C 1014.4 hPa South 12.9 km/h 35.4 km/h 95% 0 mm
03:38 16.8 °C 16 °C 1014.1 hPa SSE 14.5 km/h 30.6 km/h 95% 0 mm
03:43 16.9 °C 16.1 °C 1013.8 hPa SE 16.1 km/h 33.8 km/h 95% 0 mm
03:48 16.9 °C 16.1 °C 1014.1 hPa SSW 16.1 km/h 19.3 km/h 95% 0 mm
03:53 16.9 °C 16.1 °C 1014.4 hPa SSE 12.9 km/h 19.3 km/h 95% 0 mm
03:58 17 °C 16.2 °C 1014.4 hPa SSW 12.9 km/h 22.5 km/h 95% 0 mm
04:03 17 °C 16 °C 1014.4 hPa SSW 19.3 km/h 22.5 km/h 94% 0 mm
04:08 17.1 °C 16.1 °C 1014.4 hPa SSW 12.9 km/h 17.7 km/h 94% 0 mm
04:13 17.1 °C 16.1 °C 1014.4 hPa South 17.7 km/h 19.3 km/h 94% 0 mm
04:18 17.1 °C 16.1 °C 1014.4 hPa South 16.1 km/h 27.4 km/h 94% 0 mm
04:23 17.2 °C 16.2 °C 1014.1 hPa SSE 12.9 km/h 19.3 km/h 94% 0 mm
04:28 17.2 °C 16.2 °C 1013.8 hPa SSE 17.7 km/h 24.1 km/h 94% 0 mm
04:33 17.2 °C 16.2 °C 1014.1 hPa SSW 17.7 km/h 32.2 km/h 94% 0 mm
04:38 17.3 °C 16.3 °C 1014.4 hPa SSE 14.5 km/h 33.8 km/h 94% 0 mm
04:43 17.3 °C 16.4 °C 1014.4 hPa SSW 22.5 km/h 27.4 km/h 94% 0 mm
04:48 17.4 °C 16.4 °C 1014.1 hPa South 14.5 km/h 22.5 km/h 94% 0 mm
04:53 17.4 °C 16.5 °C 1014.1 hPa SSW 20.9 km/h 30.6 km/h 94% 0 mm
04:58 17.5 °C 16.3 °C 1014.4 hPa South 20.9 km/h 20.9 km/h 93% 0 mm
05:03 17.5 °C 16.3 °C 1014.4 hPa South 14.5 km/h 29 km/h 93% 0 mm
05:08 17.6 °C 16.4 °C 1014.4 hPa SSW 24.1 km/h 25.7 km/h 93% 0 mm
05:14 17.6 °C 16.4 °C 1014.4 hPa South 12.9 km/h 30.6 km/h 93% 0 mm
05:19 17.6 °C 16.4 °C 1014.4 hPa SSW 16.1 km/h 24.1 km/h 93% 0 mm
05:24 17.6 °C 16.4 °C 1014.8 hPa SSW 24.1 km/h 24.1 km/h 93% 0 mm
05:29 17.6 °C 16.4 °C 1014.4 hPa South 14.5 km/h 27.4 km/h 93% 0 mm
05:34 17.6 °C 16.4 °C 1014.8 hPa SW 9.7 km/h 25.7 km/h 93% 0 mm
05:39 17.7 °C 16.5 °C 1014.4 hPa SW 16.1 km/h 24.1 km/h 93% 0 mm
05:44 17.7 °C 16.6 °C 1014.8 hPa South 11.3 km/h 25.7 km/h 93% 0 mm
05:49 17.8 °C 16.6 °C 1014.8 hPa SSW 14.5 km/h 22.5 km/h 93% 0 mm
05:54 17.8 °C 16.7 °C 1014.4 hPa SSE 24.1 km/h 24.1 km/h 93% 0 mm
05:59 17.8 °C 16.5 °C 1014.8 hPa SSW 14.5 km/h 22.5 km/h 92% 0 mm
06:04 17.9 °C 16.6 °C 1014.8 hPa South 19.3 km/h 22.5 km/h 92% 0 mm
06:09 17.9 °C 16.6 °C 1014.8 hPa South 11.3 km/h 17.7 km/h 92% 0 mm
06:14 17.9 °C 16.6 °C 1014.8 hPa SSW 12.9 km/h 22.5 km/h 92% 0 mm
06:19 17.9 °C 16.6 °C 1014.8 hPa South 22.5 km/h 22.5 km/h 92% 0 mm
06:24 18 °C 16.7 °C 1014.4 hPa SW 16.1 km/h 20.9 km/h 92% 0 mm
06:29 18.1 °C 16.6 °C 1014.4 hPa South 17.7 km/h 20.9 km/h 91% 0 mm
06:34 18.1 °C 16.6 °C 1014.4 hPa SSW 14.5 km/h 17.7 km/h 91% 0 mm
06:39 18.1 °C 16.6 °C 1014.8 hPa SSW 9.7 km/h 22.5 km/h 91% 0 mm
06:44 18.1 °C 16.6 °C 1014.8 hPa SSW 11.3 km/h 24.1 km/h 91% 0 mm
06:49 18.1 °C 16.6 °C 1014.8 hPa South 14.5 km/h 22.5 km/h 91% 0 mm
06:54 18.1 °C 16.6 °C 1014.8 hPa SW 9.7 km/h 17.7 km/h 91% 0 mm
06:59 18.1 °C 16.6 °C 1014.8 hPa SSW 16.1 km/h 16.1 km/h 91% 0 mm
07:04 18.1 °C 16.6 °C 1014.8 hPa SSW 11.3 km/h 22.5 km/h 91% 0 mm
07:09 18.2 °C 16.7 °C 1014.4 hPa SW 16.1 km/h 29 km/h 91% 0 mm
07:14 18.3 °C 16.8 °C 1014.8 hPa South 9.7 km/h 19.3 km/h 91% 0 mm
07:19 18.3 °C 16.8 °C 1014.8 hPa SW 17.7 km/h 24.1 km/h 91% 0 mm
07:24 18.3 °C 16.8 °C 1014.8 hPa SW 11.3 km/h 22.5 km/h 91% 0 mm
07:29 18.4 °C 16.9 °C 1014.8 hPa SW 14.5 km/h 22.5 km/h 91% 0 mm
07:34 18.4 °C 16.9 °C 1014.8 hPa WSW 19.3 km/h 20.9 km/h 91% 0 mm
07:39 18.3 °C 16.8 °C 1014.8 hPa South 19.3 km/h 19.3 km/h 91% 0 mm
07:44 18.4 °C 16.9 °C 1014.8 hPa SSW 9.7 km/h 16.1 km/h 91% 0 mm
07:50 18.4 °C 16.9 °C 1014.8 hPa South 11.3 km/h 30.6 km/h 91% 0 mm
07:55 18.5 °C 17 °C 1014.8 hPa South 9.7 km/h 19.3 km/h 91% 0 mm
08:00 18.6 °C 17.1 °C 1014.4 hPa SSW 12.9 km/h 20.9 km/h 91% 0 mm
08:05 18.6 °C 17.1 °C 1014.4 hPa SSW 8 km/h 19.3 km/h 91% 0 mm
08:10 18.6 °C 17.1 °C 1014.4 hPa SSW 11.3 km/h 20.9 km/h 91% 0 mm
08:15 18.7 °C 17.2 °C 1014.4 hPa SSW 16.1 km/h 16.1 km/h 91% 0 mm
08:20 18.7 °C 17.1 °C 1014.4 hPa SSE 19.3 km/h 20.9 km/h 90% 0 mm
08:25 18.8 °C 17.1 °C 1014.4 hPa SSE 12.9 km/h 25.7 km/h 90% 0 mm
08:30 18.8 °C 17.2 °C 1014.4 hPa SW 19.3 km/h 27.4 km/h 90% 0 mm
08:35 18.8 °C 17.1 °C 1014.8 hPa SSE 11.3 km/h 22.5 km/h 90% 0 mm
08:40 18.8 °C 17.2 °C 1014.8 hPa SSW 14.5 km/h 19.3 km/h 90% 0 mm
08:45 18.9 °C 17.2 °C 1014.4 hPa SSW 22.5 km/h 22.5 km/h 90% 0 mm
08:46 18.9 °C 17.2 °C 1014.4 hPa SW 17.7 km/h 22.5 km/h 90% 0 mm
08:51 19 °C 17.3 °C 1014.4 hPa SSE 16.1 km/h 24.1 km/h 90% 0 mm
08:56 19.1 °C 17.4 °C 1014.4 hPa SSW 14.5 km/h 16.1 km/h 90% 0 mm
09:01 19.2 °C 17.5 °C 1014.4 hPa SSW 22.5 km/h 24.1 km/h 90% 0 mm
09:06 19.2 °C 17.4 °C 1014.1 hPa SE 17.7 km/h 20.9 km/h 89% 0 mm
09:12 19.3 °C 17.5 °C 1014.1 hPa SSW 17.7 km/h 29 km/h 89% 0 mm
09:17 19.6 °C 17.6 °C 1014.1 hPa South 24.1 km/h 35.4 km/h 88% 0 mm
09:22 19.8 °C 17.7 °C 1014.1 hPa SSW 20.9 km/h 30.6 km/h 88% 0 mm
09:27 19.9 °C 17.8 °C 1014.1 hPa SE 19.3 km/h 24.1 km/h 88% 0 mm
09:32 19.8 °C 17.6 °C 1014.1 hPa SW 19.3 km/h 30.6 km/h 87% 0 mm
09:37 19.8 °C 17.7 °C 1014.1 hPa SSW 17.7 km/h 25.7 km/h 88% 0 mm
09:42 19.8 °C 17.8 °C 1013.8 hPa SE 12.9 km/h 22.5 km/h 88% 0 mm
09:47 19.9 °C 17.7 °C 1013.8 hPa SSW 9.7 km/h 27.4 km/h 87% 0 mm
09:52 20 °C 17.8 °C 1013.8 hPa SSW 19.3 km/h 25.7 km/h 87% 0 mm
09:57 20.1 °C 17.8 °C 1013.8 hPa South 16.1 km/h 22.5 km/h 87% 0 mm
10:02 20.1 °C 17.7 °C 1013.8 hPa South 16.1 km/h 27.4 km/h 86% 0 mm
10:07 20.1 °C 17.7 °C 1013.8 hPa SSW 17.7 km/h 30.6 km/h 86% 0 mm
10:12 20.1 °C 17.7 °C 1013.8 hPa SSW 16.1 km/h 32.2 km/h 86% 0 mm
10:17 20.2 °C 17.8 °C 1013.8 hPa South 24.1 km/h 29 km/h 86% 0 mm
10:22 20.2 °C 17.8 °C 1013.8 hPa South 19.3 km/h 27.4 km/h 86% 0 mm
10:27 20.2 °C 17.8 °C 1013.8 hPa SSE 16.1 km/h 25.7 km/h 86% 0 mm
10:32 20.3 °C 17.7 °C 1013.4 hPa SW 27.4 km/h 27.4 km/h 85% 0 mm
10:37 20.4 °C 17.8 °C 1013.4 hPa SSW 11.3 km/h 27.4 km/h 85% 0 mm
10:42 20.4 °C 17.8 °C 1013.4 hPa South 17.7 km/h 37 km/h 85% 0 mm
10:48 20.6 °C 17.8 °C 1013.4 hPa SSE 12.9 km/h 20.9 km/h 84% 0 mm
10:53 20.7 °C 17.7 °C 1013.4 hPa SW 24.1 km/h 32.2 km/h 83% 0 mm
10:58 20.7 °C 17.7 °C 1013.4 hPa SSW 17.7 km/h 27.4 km/h 83% 0 mm
11:03 20.6 °C 17.6 °C 1013.4 hPa SSW 17.7 km/h 38.6 km/h 83% 0 mm
11:08 20.5 °C 17.7 °C 1013.4 hPa SW 17.7 km/h 29 km/h 84% 0 mm
11:13 20.4 °C 17.6 °C 1013.4 hPa SW 25.7 km/h 27.4 km/h 84% 0 mm
11:18 20.4 °C 17.6 °C 1013.1 hPa SSW 24.1 km/h 33.8 km/h 84% 0 mm
11:23 20.4 °C 17.6 °C 1013.1 hPa South 9.7 km/h 25.7 km/h 84% 0 mm
11:28 20.4 °C 17.7 °C 1013.1 hPa SSW 16.1 km/h 32.2 km/h 84% 0 mm
11:33 20.6 °C 17.8 °C 1013.1 hPa SSW 14.5 km/h 27.4 km/h 84% 0 mm
11:38 20.8 °C 17.8 °C 1013.1 hPa SSW 11.3 km/h 25.7 km/h 83% 0 mm
11:43 21.1 °C 18.1 °C 1013.1 hPa SW 16.1 km/h 24.1 km/h 83% 0 mm
11:48 21.4 °C 18.1 °C 1012.8 hPa SW 20.9 km/h 33.8 km/h 81% 0 mm
11:53 21.6 °C 18.2 °C 1012.8 hPa SW 19.3 km/h 29 km/h 81% 0 mm
11:58 21.4 °C 17.8 °C 1012.8 hPa SSW 20.9 km/h 25.7 km/h 80% 0 mm
12:03 21.1 °C 17.7 °C 1012.8 hPa SSW 17.7 km/h 29 km/h 81% 0 mm
12:08 21.1 °C 17.7 °C 1012.8 hPa SE 27.4 km/h 27.4 km/h 81% 0 mm
12:13 21.2 °C 17.6 °C 1012.4 hPa SSE 29 km/h 33.8 km/h 80% 0 mm
12:18 21.2 °C 17.6 °C 1012.4 hPa SSW 30.6 km/h 30.6 km/h 80% 0 mm
12:23 21.3 °C 17.7 °C 1012.1 hPa SW 19.3 km/h 29 km/h 80% 0 mm
12:28 21.3 °C 17.6 °C 1012.1 hPa SW 25.7 km/h 25.7 km/h 79% 0 mm
12:33 21.4 °C 17.4 °C 1012.1 hPa SSW 29 km/h 30.6 km/h 78% 0 mm
12:38 21.5 °C 17.5 °C 1012.1 hPa South 14.5 km/h 27.4 km/h 78% 0 mm
12:43 21.4 °C 17.2 °C 1012.4 hPa SSW 27.4 km/h 33.8 km/h 77% 0 mm
12:48 21.5 °C 17.5 °C 1011.7 hPa SW 9.7 km/h 30.6 km/h 78% 0 mm
12:54 21.4 °C 17.6 °C 1011.7 hPa SW 14.5 km/h 24.1 km/h 79% 0 mm
12:59 21.1 °C 17.5 °C 1011.7 hPa SW 20.9 km/h 24.1 km/h 80% 0 mm
13:04 20.7 °C 17.7 °C 1011.4 hPa SW 12.9 km/h 20.9 km/h 83% 4.57 mm
13:09 20.7 °C 17.7 °C 1011.1 hPa SW 24.1 km/h 25.7 km/h 83% 1.78 mm
13:14 20.9 °C 17.9 °C 1011.1 hPa South 12.9 km/h 20.9 km/h 83% 1.02 mm
13:19 21.4 °C 18 °C 1010.7 hPa WSW 24.1 km/h 30.6 km/h 81% 0 mm
13:24 21.7 °C 18.1 °C 1010.7 hPa SW 16.1 km/h 33.8 km/h 80% 0 mm
13:29 21.9 °C 18.1 °C 1010.7 hPa SSE 22.5 km/h 29 km/h 79% 0 mm
13:34 21.9 °C 18.1 °C 1010.7 hPa SSW 24.1 km/h 24.1 km/h 79% 0 mm
13:39 21.7 °C 17.7 °C 1010.7 hPa SSW 25.7 km/h 27.4 km/h 78% 0 mm
13:44 21.6 °C 17.6 °C 1010.7 hPa SSW 20.9 km/h 33.8 km/h 78% 0 mm
13:49 21.6 °C 17.6 °C 1010.4 hPa SSW 30.6 km/h 32.2 km/h 78% 0 mm
13:54 21.7 °C 17.7 °C 1010 hPa SSW 14.5 km/h 29 km/h 78% 0 mm
13:59 22 °C 17.8 °C 1010 hPa SSW 20.9 km/h 24.1 km/h 77% 0 mm
14:04 22.2 °C 17.8 °C 1009.7 hPa South 16.1 km/h 25.7 km/h 76% 0 mm
14:09 22.2 °C 17.5 °C 1009.4 hPa SSE 22.5 km/h 30.6 km/h 75% 0 mm
14:14 21.9 °C 17.3 °C 1008.7 hPa South 19.3 km/h 35.4 km/h 75% 0 mm
14:19 21.8 °C 17.4 °C 1008.7 hPa SSE 19.3 km/h 25.7 km/h 76% 0 mm
14:24 21.8 °C 17.4 °C 1009.4 hPa SSW 25.7 km/h 33.8 km/h 76% 0 mm
14:29 21.9 °C 17.5 °C 1009.4 hPa SW 32.2 km/h 32.2 km/h 76% 0 mm
14:34 21.8 °C 17.4 °C 1009.4 hPa South 19.3 km/h 45.1 km/h 76% 0 mm
14:39 21.8 °C 17.4 °C 1009.4 hPa SSW 17.7 km/h 29 km/h 76% 0 mm
14:44 21.8 °C 17.4 °C 1008.7 hPa South 25.7 km/h 30.6 km/h 76% 0 mm
14:49 21.9 °C 17.3 °C 1009 hPa SSE 24.1 km/h 46.7 km/h 75% 0 mm
14:54 21.9 °C 17.3 °C 1008.7 hPa SSW 19.3 km/h 35.4 km/h 75% 0 mm
14:59 21.9 °C 17.3 °C 1008.7 hPa SW 20.9 km/h 35.4 km/h 75% 0 mm
15:04 21.9 °C 17.3 °C 1008.7 hPa SSW 29 km/h 30.6 km/h 75% 0 mm
15:09 22.2 °C 17.2 °C 1008.4 hPa SSE 12.9 km/h 37 km/h 73% 0 mm
15:14 22.3 °C 17.4 °C 1008.4 hPa SSW 27.4 km/h 30.6 km/h 74% 0 mm
15:19 22.3 °C 17.2 °C 1008.4 hPa SW 22.5 km/h 37 km/h 73% 0 mm
15:25 22.2 °C 17.2 °C 1008.4 hPa SSW 22.5 km/h 37 km/h 73% 0 mm
15:30 22.2 °C 17.1 °C 1008 hPa SSW 17.7 km/h 24.1 km/h 73% 0 mm
15:35 22.1 °C 17.3 °C 1008 hPa SW 16.1 km/h 20.9 km/h 74% 0 mm
15:40 22.3 °C 17.4 °C 1008.4 hPa SSW 17.7 km/h 29 km/h 74% 0 mm
15:45 22.4 °C 17.3 °C 1008 hPa SW 35.4 km/h 35.4 km/h 73% 0 mm
15:50 22.4 °C 17.4 °C 1008 hPa SSE 19.3 km/h 30.6 km/h 73% 0 mm
15:55 22.4 °C 17.3 °C 1007.3 hPa SSW 17.7 km/h 25.7 km/h 73% 0 mm
16:00 22.3 °C 17.3 °C 1007.7 hPa South 25.7 km/h 27.4 km/h 73% 0 mm
16:05 22.3 °C 17.4 °C 1007.3 hPa South 12.9 km/h 32.2 km/h 74% 0 mm
16:10 22.2 °C 17.4 °C 1007.7 hPa SW 22.5 km/h 29 km/h 74% 0 mm
16:15 22.1 °C 17.2 °C 1007.7 hPa South 20.9 km/h 40.2 km/h 74% 0 mm
16:20 22.4 °C 17.6 °C 1007.3 hPa SSW 9.7 km/h 30.6 km/h 74% 0 mm
16:25 22.7 °C 17.7 °C 1007 hPa SSW 25.7 km/h 33.8 km/h 73% 0 mm
16:31 22.7 °C 17.4 °C 1007.7 hPa SW 33.8 km/h 33.8 km/h 72% 0 mm
16:36 22.5 °C 17.4 °C 1008 hPa WSW 27.4 km/h 37 km/h 73% 0 mm
16:41 22.1 °C 17.3 °C 1008 hPa SSW 32.2 km/h 37 km/h 74% 0 mm
16:46 21.8 °C 17.2 °C 1008 hPa SSW 19.3 km/h 32.2 km/h 75% 0 mm
16:51 21.6 °C 17.2 °C 1008 hPa SW 19.3 km/h 30.6 km/h 76% 0 mm
16:56 21.5 °C 17.3 °C 1008 hPa SW 30.6 km/h 30.6 km/h 77% 0 mm
17:01 21.1 °C 17.3 °C 1008 hPa SW 12.9 km/h 29 km/h 79% 0 mm
17:06 20.9 °C 17.4 °C 1008 hPa WSW 17.7 km/h 29 km/h 80% 0 mm
17:11 20.5 °C 17.5 °C 1009 hPa WSW 14.5 km/h 22.5 km/h 83% 0 mm
17:16 20.1 °C 17.4 °C 1008.7 hPa WSW 17.7 km/h 25.7 km/h 85% 3.56 mm
17:21 19.8 °C 17.4 °C 1008.4 hPa SW 27.4 km/h 30.6 km/h 86% 2.03 mm
17:27 19.3 °C 17.5 °C 1008.4 hPa SSW 20.9 km/h 29 km/h 89% 2.03 mm
17:32 19.2 °C 17.5 °C 1009 hPa SW 19.3 km/h 25.7 km/h 90% 1.52 mm
17:37 19 °C 17.5 °C 1009 hPa South 20.9 km/h 22.5 km/h 91% 1.02 mm
17:42 18.9 °C 17.4 °C 1009 hPa SW 8 km/h 16.1 km/h 91% 0 mm
17:47 18.9 °C 17.4 °C 1009 hPa SW 14.5 km/h 22.5 km/h 91% 0 mm
17:52 18.8 °C 17.5 °C 1009 hPa WSW 14.5 km/h 19.3 km/h 92% 0 mm
17:57 18.9 °C 17.4 °C 1009 hPa SW 19.3 km/h 24.1 km/h 91% 0 mm
18:02 18.9 °C 17.4 °C 1009 hPa SW 16.1 km/h 19.3 km/h 91% 0 mm
18:07 18.9 °C 17.4 °C 1009 hPa SSW 19.3 km/h 25.7 km/h 91% 0 mm
18:12 18.9 °C 17.4 °C 1009 hPa SSW 11.3 km/h 19.3 km/h 91% 0 mm
18:17 18.9 °C 17.4 °C 1009 hPa SW 11.3 km/h 24.1 km/h 91% 0 mm
18:22 18.9 °C 17.4 °C 1009 hPa SSW 9.7 km/h 17.7 km/h 91% 0 mm
18:27 18.9 °C 17.4 °C 1009.4 hPa SW 12.9 km/h 17.7 km/h 91% 0 mm
18:32 18.8 °C 17.3 °C 1009.4 hPa South 9.7 km/h 16.1 km/h 91% 0 mm
18:37 18.8 °C 17.3 °C 1009.4 hPa SW 14.5 km/h 14.5 km/h 91% 0 mm
18:42 18.8 °C 17.3 °C 1009.4 hPa SW 11.3 km/h 14.5 km/h 91% 0 mm
18:47 18.8 °C 17.3 °C 1009.7 hPa SSW 11.3 km/h 14.5 km/h 91% 0 mm
18:52 18.8 °C 17.3 °C 1009.7 hPa SSE 8 km/h 16.1 km/h 91% 0 mm
18:58 18.8 °C 17.3 °C 1009.4 hPa SSE 9.7 km/h 11.3 km/h 91% 0 mm
19:03 18.8 °C 17.3 °C 1009 hPa WSW 11.3 km/h 17.7 km/h 91% 0 mm
19:08 18.8 °C 17.3 °C 1009 hPa SSE 17.7 km/h 19.3 km/h 91% 0 mm
19:13 18.8 °C 17.3 °C 1009 hPa South 8 km/h 14.5 km/h 91% 0 mm
19:18 18.8 °C 17.3 °C 1009.4 hPa SSE 16.1 km/h 22.5 km/h 91% 0 mm
19:23 18.8 °C 17.3 °C 1009.4 hPa South 6.4 km/h 14.5 km/h 91% 0 mm
19:28 18.7 °C 17.2 °C 1009.7 hPa SSE 6.4 km/h 14.5 km/h 91% 0 mm
19:33 18.6 °C 17.1 °C 1010 hPa SSW 6.4 km/h 14.5 km/h 91% 0 mm
19:38 18.6 °C 17.1 °C 1010 hPa WSW 9.7 km/h 12.9 km/h 91% 0 mm
19:43 18.6 °C 17.1 °C 1010 hPa SSW 16.1 km/h 16.1 km/h 91% 0 mm
19:48 18.5 °C 17 °C 1010.4 hPa WSW 12.9 km/h 12.9 km/h 91% 0 mm
19:53 18.4 °C 17.1 °C 1010 hPa SSW 8 km/h 14.5 km/h 92% 0 mm
19:58 18.4 °C 17.1 °C 1010.4 hPa West 4.8 km/h 8 km/h 92% 0 mm
20:03 18.4 °C 17.1 °C 1010 hPa South 11.3 km/h 12.9 km/h 92% 0 mm
20:08 18.4 °C 17.1 °C 1010 hPa SSE 9.7 km/h 12.9 km/h 92% 0 mm
20:13 18.4 °C 17.1 °C 1010 hPa SSW 6.4 km/h 16.1 km/h 92% 0 mm
20:18 18.4 °C 17.1 °C 1010 hPa SSW 6.4 km/h 16.1 km/h 92% 0 mm
20:23 18.3 °C 17 °C 1010 hPa SW 12.9 km/h 12.9 km/h 92% 0 mm
20:28 18.3 °C 16.9 °C 1010 hPa SSW 8 km/h 16.1 km/h 92% 0 mm
20:33 18.3 °C 16.9 °C 1010 hPa SW 11.3 km/h 12.9 km/h 92% 0 mm
20:38 18.3 °C 17 °C 1010 hPa SW 12.9 km/h 14.5 km/h 92% 0 mm
20:44 18.4 °C 17.1 °C 1010 hPa WSW 9.7 km/h 22.5 km/h 92% 0 mm
20:49 18.4 °C 17.1 °C 1010 hPa SW 12.9 km/h 19.3 km/h 92% 0 mm
20:54 18.5 °C 17.2 °C 1010.4 hPa SW 16.1 km/h 17.7 km/h 92% 0 mm
20:59 18.6 °C 17.2 °C 1010.4 hPa SW 12.9 km/h 22.5 km/h 92% 0 mm
21:04 18.6 °C 17.2 °C 1010.4 hPa SW 20.9 km/h 22.5 km/h 92% 0 mm
21:09 18.6 °C 17.3 °C 1010.4 hPa SW 12.9 km/h 19.3 km/h 92% 0 mm
21:14 18.6 °C 17.3 °C 1010.4 hPa WSW 22.5 km/h 22.5 km/h 92% 0 mm
21:19 18.6 °C 17.3 °C 1010 hPa SW 9.7 km/h 29 km/h 92% 0 mm
21:24 18.6 °C 17.2 °C 1010 hPa WSW 11.3 km/h 20.9 km/h 92% 0 mm
21:29 18.5 °C 17.2 °C 1010.4 hPa SW 17.7 km/h 19.3 km/h 92% 0 mm
21:34 18.6 °C 17.2 °C 1010.4 hPa SW 12.9 km/h 30.6 km/h 92% 0 mm
21:39 18.6 °C 17.2 °C 1010.4 hPa SW 11.3 km/h 22.5 km/h 92% 0 mm
21:44 18.6 °C 17.3 °C 1010 hPa WSW 12.9 km/h 25.7 km/h 92% 0 mm
21:49 18.7 °C 17.3 °C 1010.4 hPa SW 14.5 km/h 24.1 km/h 92% 0 mm
21:54 18.7 °C 17.3 °C 1010.4 hPa SW 11.3 km/h 20.9 km/h 92% 0 mm
21:59 18.7 °C 17.3 °C 1010.4 hPa SW 14.5 km/h 22.5 km/h 92% 0 mm
22:04 18.7 °C 17.3 °C 1010.4 hPa SW 11.3 km/h 14.5 km/h 92% 0 mm
22:09 18.7 °C 17.3 °C 1010.4 hPa SSW 16.1 km/h 20.9 km/h 92% 0 mm
22:14 18.7 °C 17.3 °C 1010.4 hPa SSW 19.3 km/h 25.7 km/h 92% 0 mm
22:19 18.7 °C 17.2 °C 1010.4 hPa SW 9.7 km/h 24.1 km/h 91% 0 mm
22:24 18.7 °C 17.2 °C 1010.4 hPa WSW 11.3 km/h 22.5 km/h 91% 0 mm
22:29 18.7 °C 17.2 °C 1010.4 hPa WSW 17.7 km/h 25.7 km/h 91% 0 mm
22:34 18.6 °C 17.1 °C 1010.4 hPa WSW 16.1 km/h 22.5 km/h 91% 0 mm
22:40 18.5 °C 17 °C 1010.4 hPa SW 20.9 km/h 22.5 km/h 91% 0 mm
22:45 18.4 °C 17.1 °C 1010.4 hPa SW 12.9 km/h 25.7 km/h 92% 0 mm
22:50 18.3 °C 17 °C 1010.4 hPa SW 24.1 km/h 24.1 km/h 92% 0 mm
22:56 18.3 °C 16.9 °C 1010.7 hPa SW 19.3 km/h 20.9 km/h 92% 0 mm
23:01 18.2 °C 16.9 °C 1010.7 hPa SW 17.7 km/h 22.5 km/h 92% 0 mm
23:06 18.2 °C 16.9 °C 1010.7 hPa SSW 11.3 km/h 25.7 km/h 92% 0 mm
23:11 18.3 °C 16.9 °C 1010.7 hPa WSW 14.5 km/h 22.5 km/h 92% 0 mm
23:16 18.2 °C 16.9 °C 1010.4 hPa SW 12.9 km/h 20.9 km/h 92% 0 mm
23:21 18.2 °C 16.9 °C 1010.7 hPa SW 17.7 km/h 22.5 km/h 92% 0 mm
23:26 18.1 °C 16.8 °C 1010.7 hPa SW 16.1 km/h 20.9 km/h 92% 0 mm
23:31 18.1 °C 16.8 °C 1010.4 hPa SW 12.9 km/h 19.3 km/h 92% 0 mm
23:36 18.1 °C 16.9 °C 1010.7 hPa WSW 16.1 km/h 19.3 km/h 93% 0 mm
23:41 18.1 °C 16.8 °C 1010.7 hPa SW 12.9 km/h 17.7 km/h 92% 0 mm
23:46 18.1 °C 16.8 °C 1010.7 hPa WSW 19.3 km/h 19.3 km/h 92% 0 mm
23:51 18.1 °C 16.7 °C 1010.7 hPa WSW 11.3 km/h 16.1 km/h 92% 0 mm
23:56 18.1 °C 16.9 °C 1010.7 hPa WSW 11.3 km/h 16.1 km/h 93% 0 mm
Compliments of Weather Underground